Regional Weather Roundup
Issued by NWS Charleston, SC

Current Version | Previous Version | Graphics & Text | Print | Product List | Glossary On
Versions: 1 2 3 4 5 6 7 8 9 10 11 12 13 14 15 16 17 18 19 20 21 22 23 24 25 26 27 28 29 30 31 32 33 34 35 36 37 38 39 40 41 42 43 44 45 46 47 48 49 50
000 ASUS42 KCHS 042312 RWRCHS REGIONAL WEATHER ROUNDUP NATIONAL WEATHER SERVICE CHARLESTON SC 700 PM EDT TUE AUG 04 2015 NOTE: "FAIR" INDICATES FEW OR NO CLOUDS BELOW 12,000 FEET WITH NO SIGNIFICANT WEATHER AND/OR OBSTRUCTIONS TO VISIBILITY. NOT ALL STATIONS ARE QUALITY CONTROLLED BY THE NATIONAL WEATHER SERVICE. USE DATA WITH CAUTION...ESPECIALLY DEWPOINT OBSERVATIONS. SCZ027-030-031-034>040-042>050-050000- ...SOUTHEAST SOUTH CAROLINA... CITY SKY/WX TMP DP RH WIND PRES REMARKS N CHARLESTON MOSUNNY 88 77 69 SW15 29.94S HX 100 WATERFRONT PRK N/A 85 79 82 SW7 29.93R HX 98 MOUNT PLEASANT FAIR 88 79 74 S12 29.95R HX 102 JOHNS ISLAND FAIR 86 79 79 S13 29.96R HX 99 PINOPOLIS NOT AVBL MONCKS CORNER FAIR 91 75 59 SW5 29.93S HX 102 SUMMERVILLE FAIR 91 77 62 S3 29.95S HX 105 BEAUFORT MCAS PTSUNNY 89 78 70 S7 29.95F HX 103 BEAUFORT ARPT FAIR 86 79 79 S9 29.95F HX 99 HILTON HEAD IS MOSUNNY 88 79 74 S6 29.97F HX 102 WALTERBORO CLEAR 93 72 49 SW5 29.94F HX 100 ALLENDALE FAIR 93 72 49 SW5 29.93S HX 100 ...SOUTHERN MIDLANDS AND PEE DEE... CITY SKY/WX TMP DP RH WIND PRES REMARKS GEORGETOWN NOT AVBL KINGSTREE NOT AVBL ORANGEBURG MOSUNNY 94 69 44 W5 29.93R HX 99 BARNWELL FAIR 93 73 52 S7 29.93F HX 102 AIKEN FAIR 95 59 30 SW7 29.97F HX 94 MANNING RAIN 90 72 55 S3 29.92S HX 96 COLUMBIA MOSUNNY 100 59 25 W6 29.90F HX 100 SUMTER SUNNY 97 61 30 NW5 29.90S HX 97 FLORENCE SUNNY 94 71 47 E7 29.90S HX 101 MYRTLE BEACH PTSUNNY 86 75 70 S12 29.94S HX 95 N MYRTLE BEACH PTSUNNY 86 77 74 SW13 29.92S HX 97 $$ GAZ063-065-086>088-099>101-113>116-118-119-134>141-150-050000- ...SOUTHEAST GEORGIA... CITY SKY/WX TMP DP RH WIND PRES REMARKS SAVANNAH ARPT MOSUNNY 92 70 48 S7 29.95F HX 97 HUNTER AAF SUNNY 88 81 78 S7 29.94S HX 106 FORT STEWART MOSUNNY 88 75 66 S12 29.95S HX 97 STATESBORO SUNNY 93 77 60 S7 29.95S HX 107 SYLVANIA CLEAR 94 75 53 CALM 29.95S HX 105 CLAXTON NOT AVBL ...CSRA...CENTRAL AND FAR SOUTHEAST GEORGIA... CITY SKY/WX TMP DP RH WIND PRES REMARKS THOMSON SUNNY 96 70 42 CALM 29.97F HX 102 AUGUSTA-BUSH MOSUNNY 92 66 42 S8 29.91F HX 94 AUGUSTA-DANIEL MOSUNNY 98 62 30 VRB5 29.93F HX 99 SWAINSBORO FAIR 91 70 49 S5 29.96S HX 97 VIDALIA MOSUNNY 90 72 55 S3 29.97S HX 96 EASTMAN MOCLDY 89 69 51 S9 30.01R HX 92 HAZLEHURST FAIR 87 75 66 S8 29.98R HX 96 ALMA MOSUNNY 82 72 71 S8 29.99F WAYCROSS PTSUNNY 82 76 82 SW7 30.00F JESUP FAIR 86 77 74 SW6 29.98F HX 97 BAXLEY FAIR 84 72 65 SW8 29.99S BRUNSWICK CLOUDY 81 73 78 W9G16 30.00S SAINT SIMONS CLOUDY 80 73 79 W13 29.99R $$ SCZ027-028-034-036>038-045-046-048>050-GAZ119-141-050000- ...LAKE AND SUPPLEMENTAL COASTAL OBSERVATIONS... STATION/POSITION TIME TEMP WIND PRES WAVE SWELL AIR SEA DIR/SP/G HT/PER HT/PER/DIR (UTC) (F) (DEG/KT/KT) (MB) (FT/S) (FT/S/D) UPR LAKE MARION NOT AVBL WINYAH BAY 2145 88 240/ 6 1012.0 LAKE MURRAY 2200 95 190/ 6/ 7 1012.2R ACE BASIN NERRS NOT AVBL FORT PULASKI 2200 87 85 170/ 7/ 11 1015.3F SAPELO ISLAND 2200 86 210/ 12 1015.0S $$ ANZ835-935-AMZ111-154-330-350-352-354-370-450-454-472-050000- ...C-MAN AND BUOY OBSERVATIONS... STATION/POSITION TIME TEMP WIND PRES WAVE SWELL AIR SEA DIR/SP/G HT/PER HT/PER/DIR (UTC) (F) (DEG/KT/KT) (MB) (FT/S) (FT/S/D) BUOY 41004 2250 82 83 210/ 17/ 19 1014.2R 5/ 6 2/11 BUOY 41008 2250 83 84 230/ 16/ 17 1015.4F 3/ 6 2/120/ 7 FOLLY BEACH CMAN 2200 83 210/ 17/ 20 1014.5R CAPERS NEARSHORE 2208 83 220/ 16/ 19 1014.6R FRIPP NEARSHORE 2200 85 230/ 16/ 17 1014.5S STATION/POSITION TIME TEMP WIND PRES WAVE SWELL AIR SEA DIR/SP/G HT/PER HT/PER/DIR (UTC) (F) (DEG/KT/KT) (MB) (FT/S) (FT/S/D) 5E ST. MARYS GA 2221 82 N/A 3/10 FRYING PAN BUOY 2250 83 81 210/ 21/ 25 1013.6F 8/ 8 5/170/ 8 BUOY 41025 2250 79 83 180/ 16/ 19 1016.0F 5/ 6 2/130/11 CAPE LOOKOUT NC 2200 80 170/ 12/ 14 1014.1F BUOY 41002 2250 83 81 190/ 12/ 16 1017.6F 6/ 7 5/260/ 7 BUOY 41010 2220 84 84 210/ 10/ 12 1017.5F ST AUGUSTINE FL 2300 81 78 240/ 6/ 7 1017.4F $$

USA.gov is the U.S. government's official web portal to all federal, state and local government web resources and services.